Time,TemperatureF,DewpointF,PressureIn,WindDirection,WindDirectionDegrees,WindSpeedMPH,WindSpeedGustMPH,Humidity,HourlyPrecipIn,Conditions,Clouds,dailyrainin,SoftwareType,DateUTC
2013-06-03 00:01:00,70.0,66.9,29.81,WNW,298,0.0,0.0,90,0.00,,,0.03,Wunderground v.1.15,2013-06-03 04:01:00,
2013-06-03 00:06:00,69.9,66.8,29.82,WNW,298,0.0,1.0,90,0.00,,,0.00,Wunderground v.1.15,2013-06-03 04:06:00,
2013-06-03 00:11:00,69.8,66.7,29.82,SW,232,1.0,3.0,90,0.00,,,0.00,Wunderground v.1.15,2013-06-03 04:11:00,
2013-06-03 00:16:00,69.6,66.5,29.82,SW,217,0.0,4.0,90,0.00,,,0.00,Wunderground v.1.15,2013-06-03 04:16:00,
2013-06-03 00:21:00,69.5,66.4,29.81,SW,217,0.0,0.0,90,0.00,,,0.00,Wunderground v.1.15,2013-06-03 04:21:00,
2013-06-03 00:26:00,69.4,66.3,29.81,SW,217,0.0,1.0,90,0.00,,,0.00,Wunderground v.1.15,2013-06-03 04:26:00,
2013-06-03 00:31:00,69.2,66.1,29.81,SW,217,0.0,3.0,90,0.00,,,0.00,Wunderground v.1.15,2013-06-03 04:31:00,
2013-06-03 00:32:00,69.2,66.1,29.81,SW,217,0.0,3.0,90,0.00,,,0.00,Wunderground v.1.15,2013-06-03 04:32:00,
2013-06-03 00:37:00,69.1,66.0,29.81,SW,217,1.0,4.0,90,0.00,,,0.00,Wunderground v.1.15,2013-06-03 04:37:00,
2013-06-03 00:40:00,69.1,66.0,29.81,South,182,0.0,0.0,90,0.00,,,0.00,Wunderground v.1.15,2013-06-03 04:40:00,
2013-06-03 00:45:00,69.0,65.9,29.81,South,182,0.0,5.0,90,0.00,,,0.00,Wunderground v.1.15,2013-06-03 04:45:00,
2013-06-03 00:50:00,69.0,65.9,29.82,South,173,2.0,2.0,90,0.00,,,0.00,Wunderground v.1.15,2013-06-03 04:50:00,
2013-06-03 00:55:00,69.0,65.9,29.82,SW,214,1.0,5.0,90,0.00,,,0.00,Wunderground v.1.15,2013-06-03 04:55:00,
2013-06-03 01:01:00,68.9,65.8,29.82,SW,214,0.0,1.0,90,0.00,,,0.00,Wunderground v.1.15,2013-06-03 05:01:00,
2013-06-03 01:06:00,68.9,65.8,29.81,SW,214,0.0,1.0,90,0.00,,,0.00,Wunderground v.1.15,2013-06-03 05:06:00,
2013-06-03 01:12:00,68.8,65.7,29.82,SW,214,0.0,1.0,90,0.00,,,0.00,Wunderground v.1.15,2013-06-03 05:12:00,
2013-06-03 01:18:00,68.6,65.5,29.82,SW,214,0.0,1.0,90,0.00,,,0.00,Wunderground v.1.15,2013-06-03 05:18:00,
2013-06-03 01:24:00,68.5,65.4,29.82,SW,214,0.0,0.0,90,0.00,,,0.00,Wunderground v.1.15,2013-06-03 05:24:00,
2013-06-03 01:29:00,68.5,65.4,29.81,SW,214,0.0,0.0,90,0.00,,,0.00,Wunderground v.1.15,2013-06-03 05:29:00,
2013-06-03 01:35:00,68.5,65.4,29.81,SW,214,0.0,0.0,90,0.00,,,0.00,Wunderground v.1.15,2013-06-03 05:35:00,
2013-06-03 01:40:00,68.4,65.4,29.81,SW,214,0.0,0.0,90,0.00,,,0.00,Wunderground v.1.15,2013-06-03 05:40:00,
2013-06-03 01:46:00,68.3,65.3,29.81,SW,214,0.0,0.0,90,0.00,,,0.00,Wunderground v.1.15,2013-06-03 05:46:00,
2013-06-03 01:51:00,68.1,65.1,29.81,SW,214,0.0,0.0,90,0.00,,,0.00,Wunderground v.1.15,2013-06-03 05:51:00,
2013-06-03 01:57:00,68.0,65.0,29.81,SW,214,0.0,0.0,90,0.00,,,0.00,Wunderground v.1.15,2013-06-03 05:57:00,
2013-06-03 02:02:00,67.9,65.2,29.81,SW,214,0.0,0.0,91,0.00,,,0.00,Wunderground v.1.15,2013-06-03 06:02:00,
2013-06-03 02:08:00,67.7,65.0,29.81,SW,214,0.0,0.0,91,0.00,,,0.00,Wunderground v.1.15,2013-06-03 06:08:00,
2013-06-03 02:13:00,67.6,65.2,29.81,SW,214,1.0,1.0,92,0.00,,,0.00,Wunderground v.1.15,2013-06-03 06:13:00,
2013-06-03 02:18:00,67.5,64.8,29.81,SW,214,0.0,3.0,91,0.00,,,0.00,Wunderground v.1.15,2013-06-03 06:18:00,
2013-06-03 02:24:00,67.5,64.8,29.80,SSW,213,0.0,2.0,91,0.00,,,0.00,Wunderground v.1.15,2013-06-03 06:24:00,
2013-06-03 02:29:00,67.5,64.8,29.80,SSW,199,1.0,3.0,91,0.00,,,0.00,Wunderground v.1.15,2013-06-03 06:29:00,
2013-06-03 02:35:00,67.6,65.2,29.81,SW,222,0.0,4.0,92,0.00,,,0.00,Wunderground v.1.15,2013-06-03 06:35:00,
2013-06-03 02:40:00,67.7,65.3,29.81,SW,223,0.0,1.0,92,0.00,,,0.00,Wunderground v.1.15,2013-06-03 06:40:00,
2013-06-03 02:46:00,67.6,65.2,29.80,South,188,0.0,2.0,92,0.00,,,0.00,Wunderground v.1.15,2013-06-03 06:46:00,
2013-06-03 02:51:00,67.5,64.8,29.80,South,179,3.0,3.0,91,0.00,,,0.00,Wunderground v.1.15,2013-06-03 06:51:00,
2013-06-03 02:57:00,67.3,64.9,29.80,South,186,7.0,7.0,92,0.00,,,0.00,Wunderground v.1.15,2013-06-03 06:57:00,
2013-06-03 03:02:00,67.3,64.9,29.80,South,187,0.0,4.0,92,0.00,,,0.00,Wunderground v.1.15,2013-06-03 07:02:00,
2013-06-03 03:07:00,67.3,64.9,29.80,SSW,202,3.0,5.0,92,0.00,,,0.00,Wunderground v.1.15,2013-06-03 07:07:00,
2013-06-03 03:12:00,67.3,64.9,29.80,SW,226,2.0,4.0,92,0.00,,,0.00,Wunderground v.1.15,2013-06-03 07:12:00,
2013-06-03 03:17:00,67.4,65.0,29.80,SW,226,2.0,5.0,92,0.00,,,0.00,Wunderground v.1.15,2013-06-03 07:17:00,
2013-06-03 03:22:00,67.4,65.0,29.79,SW,226,0.0,1.0,92,0.00,,,0.00,Wunderground v.1.15,2013-06-03 07:22:00,
2013-06-03 03:27:00,67.4,65.0,29.79,SW,226,0.0,3.0,92,0.00,,,0.00,Wunderground v.1.15,2013-06-03 07:27:00,
2013-06-03 03:32:00,67.3,64.9,29.79,SW,226,0.0,1.0,92,0.00,,,0.00,Wunderground v.1.15,2013-06-03 07:32:00,
2013-06-03 03:37:00,67.2,64.8,29.79,SW,226,0.0,1.0,92,0.00,,,0.00,Wunderground v.1.15,2013-06-03 07:37:00,
2013-06-03 03:42:00,67.2,64.8,29.78,SW,226,0.0,2.0,92,0.00,,,0.00,Wunderground v.1.15,2013-06-03 07:42:00,
2013-06-03 03:47:00,67.2,64.8,29.79,SW,226,0.0,2.0,92,0.00,,,0.00,Wunderground v.1.15,2013-06-03 07:47:00,
2013-06-03 03:52:00,67.2,64.8,29.79,SW,226,0.0,1.0,92,0.00,,,0.00,Wunderground v.1.15,2013-06-03 07:52:00,
2013-06-03 03:57:00,67.1,64.7,29.79,SW,226,0.0,3.0,92,0.00,,,0.00,Wunderground v.1.15,2013-06-03 07:57:00,
2013-06-03 04:02:00,67.1,64.7,29.79,SW,226,4.0,4.0,92,0.00,,,0.00,Wunderground v.1.15,2013-06-03 08:02:00,
2013-06-03 04:07:00,67.0,64.6,29.79,SW,226,5.0,5.0,92,0.00,,,0.00,Wunderground v.1.15,2013-06-03 08:07:00,
2013-06-03 04:12:00,67.1,64.7,29.79,WSW,252,0.0,3.0,92,0.00,,,0.00,Wunderground v.1.15,2013-06-03 08:12:00,
2013-06-03 04:17:00,67.1,64.7,29.79,WSW,252,0.0,3.0,92,0.00,,,0.00,Wunderground v.1.15,2013-06-03 08:17:00,
2013-06-03 04:22:00,67.1,64.7,29.78,WSW,252,0.0,1.0,92,0.00,,,0.00,Wunderground v.1.15,2013-06-03 08:22:00,
2013-06-03 04:27:00,67.1,64.7,29.79,WSW,252,0.0,3.0,92,0.00,,,0.00,Wunderground v.1.15,2013-06-03 08:27:00,
2013-06-03 04:32:00,67.1,64.7,29.79,WSW,252,0.0,0.0,92,0.00,,,0.00,Wunderground v.1.15,2013-06-03 08:32:00,
2013-06-03 04:37:00,67.2,64.8,29.79,WSW,252,0.0,1.0,92,0.00,,,0.00,Wunderground v.1.15,2013-06-03 08:37:00,
2013-06-03 04:42:00,67.2,64.8,29.79,WSW,252,0.0,0.0,92,0.00,,,0.00,Wunderground v.1.15,2013-06-03 08:42:00,
2013-06-03 04:47:00,67.2,64.8,29.79,WSW,252,0.0,1.0,92,0.00,,,0.00,Wunderground v.1.15,2013-06-03 08:47:00,
2013-06-03 04:52:00,67.2,64.8,29.80,WSW,252,0.0,0.0,92,0.00,,,0.00,Wunderground v.1.15,2013-06-03 08:52:00,
2013-06-03 04:57:00,67.2,64.8,29.80,WSW,252,0.0,3.0,92,0.00,,,0.00,Wunderground v.1.15,2013-06-03 08:57:00,
2013-06-03 05:02:00,67.2,64.8,29.80,WSW,252,0.0,4.0,92,0.00,,,0.00,Wunderground v.1.15,2013-06-03 09:02:00,
2013-06-03 05:07:00,67.2,64.8,29.80,WSW,252,0.0,4.0,92,0.00,,,0.00,Wunderground v.1.15,2013-06-03 09:07:00,
2013-06-03 05:12:00,67.2,64.8,29.80,WSW,252,0.0,0.0,92,0.00,,,0.00,Wunderground v.1.15,2013-06-03 09:12:00,
2013-06-03 05:17:00,67.2,65.1,29.80,WSW,252,0.0,1.0,93,0.00,,,0.00,Wunderground v.1.15,2013-06-03 09:17:00,
2013-06-03 05:22:00,67.3,65.2,29.81,WSW,252,0.0,0.0,93,0.00,,,0.00,Wunderground v.1.15,2013-06-03 09:22:00,
2013-06-03 05:27:00,67.2,65.1,29.81,WSW,252,0.0,0.0,93,0.00,,,0.00,Wunderground v.1.15,2013-06-03 09:27:00,
2013-06-03 05:33:00,67.2,65.1,29.81,WSW,252,0.0,2.0,93,0.00,,,0.00,Wunderground v.1.15,2013-06-03 09:33:00,
2013-06-03 05:38:00,67.2,65.1,29.81,WSW,252,0.0,3.0,93,0.00,,,0.00,Wunderground v.1.15,2013-06-03 09:38:00,
2013-06-03 05:43:00,67.3,65.2,29.81,WSW,252,0.0,1.0,93,0.00,,,0.00,Wunderground v.1.15,2013-06-03 09:43:00,
2013-06-03 05:48:00,67.3,65.2,29.81,WSW,252,0.0,3.0,93,0.00,,,0.00,Wunderground v.1.15,2013-06-03 09:48:00,
2013-06-03 05:53:00,67.4,65.3,29.82,WSW,252,0.0,1.0,93,0.00,,,0.01,Wunderground v.1.15,2013-06-03 09:53:00,
2013-06-03 05:58:00,67.4,65.3,29.82,WSW,242,1.0,6.0,93,0.08,,,0.02,Wunderground v.1.15,2013-06-03 09:58:00,
2013-06-03 06:03:00,67.4,65.3,29.83,WSW,241,3.0,5.0,93,0.08,,,0.02,Wunderground v.1.15,2013-06-03 10:03:00,
2013-06-03 06:08:00,67.4,65.3,29.83,WSW,241,0.0,5.0,93,0.06,,,0.02,Wunderground v.1.15,2013-06-03 10:08:00,
2013-06-03 06:13:00,67.4,65.3,29.84,WSW,237,0.0,4.0,93,0.14,,,0.04,Wunderground v.1.15,2013-06-03 10:13:00,
2013-06-03 06:18:00,67.4,65.3,29.84,SW,235,0.0,6.0,93,0.31,,,0.05,Wunderground v.1.15,2013-06-03 10:18:00,
2013-06-03 06:23:00,67.3,65.2,29.85,South,188,0.0,6.0,93,0.22,,,0.07,Wunderground v.1.15,2013-06-03 10:23:00,
2013-06-03 06:28:00,67.2,65.1,29.85,SSE,165,4.0,6.0,93,0.14,,,0.09,Wunderground v.1.15,2013-06-03 10:28:00,
2013-06-03 06:33:00,67.2,65.1,29.85,South,183,3.0,4.0,93,0.16,,,0.10,Wunderground v.1.15,2013-06-03 10:33:00,
2013-06-03 06:38:00,67.1,65.0,29.85,South,187,0.0,5.0,93,0.18,,,0.11,Wunderground v.1.15,2013-06-03 10:38:00,
2013-06-03 06:43:00,67.1,65.0,29.85,South,187,0.0,1.0,93,0.12,,,0.12,Wunderground v.1.15,2013-06-03 10:43:00,
2013-06-03 06:48:00,67.0,64.9,29.85,South,187,1.0,4.0,93,0.08,,,0.13,Wunderground v.1.15,2013-06-03 10:48:00,
2013-06-03 06:53:00,66.9,64.8,29.85,South,188,0.0,4.0,93,0.08,,,0.13,Wunderground v.1.15,2013-06-03 10:53:00,
2013-06-03 06:58:00,66.9,64.8,29.85,South,187,0.0,6.0,93,0.05,,,0.13,Wunderground v.1.15,2013-06-03 10:58:00,
2013-06-03 07:03:00,66.9,64.8,29.85,South,187,0.0,4.0,93,0.00,,,0.13,Wunderground v.1.15,2013-06-03 11:03:00,
2013-06-03 07:08:00,66.8,64.7,29.85,South,187,0.0,4.0,93,0.00,,,0.13,Wunderground v.1.15,2013-06-03 11:08:00,
2013-06-03 07:13:00,66.8,64.7,29.85,WSW,252,4.0,4.0,93,0.00,,,0.14,Wunderground v.1.15,2013-06-03 11:13:00,
2013-06-03 07:18:00,66.7,64.6,29.85,WSW,252,0.0,4.0,93,0.00,,,0.14,Wunderground v.1.15,2013-06-03 11:18:00,
2013-06-03 07:23:00,66.6,64.5,29.85,SW,215,3.0,4.0,93,0.00,,,0.14,Wunderground v.1.15,2013-06-03 11:23:00,
2013-06-03 07:28:00,66.5,64.4,29.85,SW,216,0.0,4.0,93,0.05,,,0.15,Wunderground v.1.15,2013-06-03 11:28:00,
2013-06-03 07:33:00,66.3,64.2,29.85,South,178,3.0,4.0,93,0.10,,,0.16,Wunderground v.1.15,2013-06-03 11:33:00,
2013-06-03 07:38:00,66.1,64.0,29.85,South,172,3.0,5.0,93,0.07,,,0.16,Wunderground v.1.15,2013-06-03 11:38:00,
2013-06-03 07:43:00,65.9,63.8,29.85,South,170,0.0,6.0,93,0.06,,,0.17,Wunderground v.1.15,2013-06-03 11:43:00,
2013-06-03 07:48:00,65.9,63.8,29.85,South,170,0.0,6.0,93,0.06,,,0.17,Wunderground v.1.15,2013-06-03 11:48:00,
2013-06-03 07:53:00,65.9,63.8,29.85,South,169,0.0,4.0,93,0.04,,,0.18,Wunderground v.1.15,2013-06-03 11:53:00,
2013-06-03 07:58:00,66.0,63.9,29.85,South,170,2.0,4.0,93,0.04,,,0.18,Wunderground v.1.15,2013-06-03 11:58:00,
2013-06-03 08:03:00,66.0,63.9,29.84,South,170,2.0,4.0,93,0.04,,,0.18,Wunderground v.1.15,2013-06-03 12:03:00,
2013-06-03 08:08:00,65.9,63.8,29.84,South,169,0.0,4.0,93,0.04,,,0.18,Wunderground v.1.15,2013-06-03 12:08:00,
2013-06-03 08:13:00,65.9,63.8,29.84,South,176,0.0,2.0,93,0.00,,,0.18,Wunderground v.1.15,2013-06-03 12:13:00,
2013-06-03 08:18:00,66.0,64.2,29.84,South,177,0.0,2.0,94,0.00,,,0.18,Wunderground v.1.15,2013-06-03 12:18:00,
2013-06-03 08:23:00,66.1,64.3,29.84,South,177,0.0,3.0,94,0.00,,,0.19,Wunderground v.1.15,2013-06-03 12:23:00,
2013-06-03 08:28:00,66.1,64.3,29.84,South,169,2.0,5.0,94,0.00,,,0.19,Wunderground v.1.15,2013-06-03 12:28:00,
2013-06-03 08:33:00,66.1,64.3,29.83,South,169,0.0,3.0,94,0.00,,,0.19,Wunderground v.1.15,2013-06-03 12:33:00,
2013-06-03 08:38:00,66.1,64.3,29.83,South,169,0.0,5.0,94,0.00,,,0.19,Wunderground v.1.15,2013-06-03 12:38:00,
2013-06-03 08:43:00,66.3,64.5,29.83,South,169,0.0,2.0,94,0.00,,,0.19,Wunderground v.1.15,2013-06-03 12:43:00,
2013-06-03 08:48:00,66.4,64.6,29.84,South,169,0.0,4.0,94,0.00,,,0.19,Wunderground v.1.15,2013-06-03 12:48:00,
2013-06-03 08:53:00,66.4,64.6,29.84,South,169,0.0,4.0,94,0.00,,,0.19,Wunderground v.1.15,2013-06-03 12:53:00,
2013-06-03 08:58:00,66.2,64.1,29.85,SSW,208,0.0,6.0,93,0.00,,,0.19,Wunderground v.1.15,2013-06-03 12:58:00,
2013-06-03 09:03:00,66.2,64.4,29.85,South,169,0.0,4.0,94,0.00,,,0.19,Wunderground v.1.15,2013-06-03 13:03:00,
2013-06-03 09:08:00,66.1,64.3,29.85,South,178,0.0,5.0,94,0.00,,,0.19,Wunderground v.1.15,2013-06-03 13:08:00,
2013-06-03 09:13:00,66.3,64.5,29.85,SSW,199,0.0,5.0,94,0.00,,,0.20,Wunderground v.1.15,2013-06-03 13:13:00,
2013-06-03 09:18:00,66.4,64.6,29.85,SSW,211,0.0,5.0,94,0.00,,,0.20,Wunderground v.1.15,2013-06-03 13:18:00,
2013-06-03 09:23:00,66.5,64.4,29.85,SSW,206,0.0,4.0,93,0.00,,,0.20,Wunderground v.1.15,2013-06-03 13:23:00,
2013-06-03 09:29:00,66.3,64.2,29.85,SSW,206,1.0,5.0,93,0.00,,,0.20,Wunderground v.1.15,2013-06-03 13:29:00,
2013-06-03 09:34:00,66.1,64.0,29.85,West,281,0.0,5.0,93,0.00,,,0.20,Wunderground v.1.15,2013-06-03 13:34:00,
2013-06-03 09:39:00,66.1,64.3,29.85,West,281,0.0,5.0,94,0.00,,,0.20,Wunderground v.1.15,2013-06-03 13:39:00,
2013-06-03 09:44:00,66.2,64.1,29.85,South,170,3.0,4.0,93,0.00,,,0.21,Wunderground v.1.15,2013-06-03 13:44:00,
2013-06-03 09:49:00,66.1,64.0,29.85,South,190,3.0,9.0,93,0.09,,,0.22,Wunderground v.1.15,2013-06-03 13:49:00,
2013-06-03 09:54:00,66.1,64.0,29.85,SSW,203,3.0,5.0,93,0.07,,,0.22,Wunderground v.1.15,2013-06-03 13:54:00,
2013-06-03 09:59:00,66.0,63.9,29.85,SW,215,1.0,6.0,93,0.04,,,0.22,Wunderground v.1.15,2013-06-03 13:59:00,
2013-06-03 10:04:00,66.1,64.0,29.85,SW,235,4.0,5.0,93,0.00,,,0.22,Wunderground v.1.15,2013-06-03 14:04:00,
2013-06-03 10:09:00,65.9,63.8,29.85,South,178,2.0,7.0,93,0.00,,,0.22,Wunderground v.1.15,2013-06-03 14:09:00,
2013-06-03 10:14:00,65.9,63.8,29.85,South,190,1.0,6.0,93,0.00,,,0.22,Wunderground v.1.15,2013-06-03 14:14:00,
2013-06-03 10:19:00,65.8,63.7,29.85,SW,224,0.0,6.0,93,0.00,,,0.22,Wunderground v.1.15,2013-06-03 14:19:00,
2013-06-03 10:24:00,65.7,63.6,29.86,SW,215,0.0,5.0,93,0.00,,,0.23,Wunderground v.1.15,2013-06-03 14:24:00,
2013-06-03 10:29:00,65.7,63.6,29.85,South,184,3.0,6.0,93,0.00,,,0.23,Wunderground v.1.15,2013-06-03 14:29:00,
2013-06-03 10:34:00,65.6,63.5,29.85,SSW,193,0.0,6.0,93,0.06,,,0.24,Wunderground v.1.15,2013-06-03 14:34:00,
2013-06-03 10:39:00,65.7,63.6,29.85,SSW,205,5.0,6.0,93,0.06,,,0.24,Wunderground v.1.15,2013-06-03 14:39:00,
2013-06-03 10:44:00,65.7,63.6,29.85,South,184,0.0,6.0,93,0.04,,,0.24,Wunderground v.1.15,2013-06-03 14:44:00,
2013-06-03 10:49:00,65.8,63.7,29.85,SW,232,3.0,6.0,93,0.00,,,0.24,Wunderground v.1.15,2013-06-03 14:49:00,
2013-06-03 10:54:00,65.8,63.7,29.84,SSW,207,4.0,6.0,93,0.00,,,0.24,Wunderground v.1.15,2013-06-03 14:54:00,
2013-06-03 10:59:00,66.0,64.2,29.84,South,172,2.0,6.0,94,0.00,,,0.24,Wunderground v.1.15,2013-06-03 14:59:00,
2013-06-03 11:04:00,66.0,63.9,29.84,SW,215,0.0,4.0,93,0.00,,,0.24,Wunderground v.1.15,2013-06-03 15:04:00,
2013-06-03 11:09:00,65.8,63.7,29.84,SSW,195,1.0,6.0,93,0.00,,,0.24,Wunderground v.1.15,2013-06-03 15:09:00,
2013-06-03 11:14:00,65.8,63.7,29.84,SSE,157,1.0,4.0,93,0.00,,,0.24,Wunderground v.1.15,2013-06-03 15:14:00,
2013-06-03 11:19:00,65.7,63.6,29.84,SSW,202,4.0,7.0,93,0.00,,,0.24,Wunderground v.1.15,2013-06-03 15:19:00,
2013-06-03 11:24:00,65.9,63.8,29.84,South,184,0.0,8.0,93,0.00,,,0.24,Wunderground v.1.15,2013-06-03 15:24:00,
2013-06-03 11:29:00,66.5,64.4,29.84,South,184,0.0,8.0,93,0.00,,,0.24,Wunderground v.1.15,2013-06-03 15:29:00,
2013-06-03 11:34:00,66.7,64.6,29.83,SSE,155,1.0,6.0,93,0.00,,,0.24,Wunderground v.1.15,2013-06-03 15:34:00,
2013-06-03 11:40:00,67.2,65.1,29.83,SSW,194,0.0,2.0,93,0.00,,,0.24,Wunderground v.1.15,2013-06-03 15:40:00,
2013-06-03 11:45:00,67.6,65.5,29.83,SW,223,4.0,5.0,93,0.00,,,0.24,Wunderground v.1.15,2013-06-03 15:45:00,
2013-06-03 11:50:00,67.6,65.5,29.84,SW,234,1.0,3.0,93,0.00,,,0.24,Wunderground v.1.15,2013-06-03 15:50:00,
2013-06-03 11:55:00,67.3,64.6,29.84,SW,233,5.0,6.0,91,0.00,,,0.24,Wunderground v.1.15,2013-06-03 15:55:00,
2013-06-03 12:00:00,67.5,64.5,29.84,SSW,200,6.0,6.0,90,0.00,,,0.24,Wunderground v.1.15,2013-06-03 16:00:00,
2013-06-03 12:05:00,68.1,64.7,29.83,South,190,1.0,12.0,89,0.00,,,0.24,Wunderground v.1.15,2013-06-03 16:05:00,
2013-06-03 12:10:00,68.1,64.4,29.83,SW,220,4.0,5.0,88,0.00,,,0.24,Wunderground v.1.15,2013-06-03 16:10:00,
2013-06-03 12:15:00,68.5,64.5,29.83,WSW,237,3.0,7.0,87,0.00,,,0.24,Wunderground v.1.15,2013-06-03 16:15:00,
2013-06-03 12:20:00,69.1,65.1,29.83,SSW,213,0.0,3.0,87,0.00,,,0.24,Wunderground v.1.15,2013-06-03 16:20:00,
2013-06-03 12:25:00,69.7,65.7,29.83,SW,231,1.0,6.0,87,0.00,,,0.24,Wunderground v.1.15,2013-06-03 16:25:00,
2013-06-03 12:30:00,70.0,64.9,29.83,SSW,210,0.0,3.0,84,0.00,,,0.24,Wunderground v.1.15,2013-06-03 16:30:00,
2013-06-03 12:35:00,70.7,66.0,29.83,WSW,257,3.0,5.0,85,0.00,,,0.24,Wunderground v.1.15,2013-06-03 16:35:00,
2013-06-03 12:40:00,70.8,65.7,29.82,SW,227,4.0,4.0,84,0.00,,,0.24,Wunderground v.1.15,2013-06-03 16:40:00,
2013-06-03 12:45:00,71.0,65.9,29.82,SSW,200,2.0,7.0,84,0.00,,,0.24,Wunderground v.1.15,2013-06-03 16:45:00,
2013-06-03 12:50:00,71.1,65.7,29.82,SSW,213,3.0,4.0,83,0.00,,,0.24,Wunderground v.1.15,2013-06-03 16:50:00,
2013-06-03 12:55:00,71.1,65.7,29.82,WSW,239,1.0,7.0,83,0.00,,,0.24,Wunderground v.1.15,2013-06-03 16:55:00,
2013-06-03 13:00:00,71.3,66.2,29.82,SSE,168,0.0,2.0,84,0.00,,,0.24,Wunderground v.1.15,2013-06-03 17:00:00,
2013-06-03 13:05:00,71.6,66.5,29.82,South,175,4.0,9.0,84,0.00,,,0.24,Wunderground v.1.15,2013-06-03 17:05:00,
2013-06-03 13:10:00,71.8,66.4,29.82,South,189,0.0,2.0,83,0.00,,,0.24,Wunderground v.1.15,2013-06-03 17:10:00,
2013-06-03 13:15:00,72.1,66.6,29.81,South,184,0.0,6.0,83,0.00,,,0.24,Wunderground v.1.15,2013-06-03 17:15:00,
2013-06-03 13:20:00,72.4,67.3,29.81,SSE,160,0.0,1.0,84,0.00,,,0.24,Wunderground v.1.15,2013-06-03 17:20:00,
2013-06-03 13:25:00,73.0,67.5,29.81,South,184,0.0,6.0,83,0.00,,,0.24,Wunderground v.1.15,2013-06-03 17:25:00,
2013-06-03 13:30:00,73.5,67.3,29.81,West,267,1.0,2.0,81,0.00,,,0.24,Wunderground v.1.15,2013-06-03 17:30:00,
2013-06-03 13:35:00,73.9,67.7,29.80,SSW,195,2.0,11.0,81,0.00,,,0.24,Wunderground v.1.15,2013-06-03 17:35:00,
2013-06-03 13:40:00,74.1,66.8,29.80,South,190,2.0,3.0,78,0.00,,,0.24,Wunderground v.1.15,2013-06-03 17:40:00,
2013-06-03 13:45:00,74.2,66.5,29.80,SSE,160,0.0,8.0,77,0.00,,,0.24,Wunderground v.1.15,2013-06-03 17:45:00,
2013-06-03 13:50:00,74.6,66.9,29.80,SW,226,0.0,3.0,77,0.00,,,0.24,Wunderground v.1.15,2013-06-03 17:50:00,
2013-06-03 13:55:00,75.2,67.1,29.79,SW,222,1.0,9.0,76,0.00,,,0.24,Wunderground v.1.15,2013-06-03 17:55:00,
2013-06-03 14:00:00,75.5,66.6,29.80,South,188,0.0,3.0,74,0.00,,,0.24,Wunderground v.1.15,2013-06-03 18:00:00,
2013-06-03 14:05:00,75.6,66.7,29.79,SSW,192,1.0,7.0,74,0.00,,,0.24,Wunderground v.1.15,2013-06-03 18:05:00,
2013-06-03 14:10:00,75.6,67.1,29.79,SW,222,2.0,3.0,75,0.00,,,0.24,Wunderground v.1.15,2013-06-03 18:10:00,
2013-06-03 14:15:00,76.0,67.5,29.79,WSW,247,4.0,6.0,75,0.00,,,0.24,Wunderground v.1.15,2013-06-03 18:15:00,
2013-06-03 14:20:00,76.4,66.7,29.79,SW,231,4.0,4.0,72,0.00,,,0.24,Wunderground v.1.15,2013-06-03 18:20:00,
2013-06-03 14:25:00,76.7,68.2,29.78,SSE,150,0.0,6.0,75,0.00,,,0.24,Wunderground v.1.15,2013-06-03 18:25:00,
2013-06-03 14:30:00,76.1,66.8,29.78,SSE,167,3.0,6.0,73,0.00,,,0.24,Wunderground v.1.15,2013-06-03 18:30:00,
2013-06-03 14:35:00,76.2,66.9,29.78,SW,236,7.0,10.0,73,0.00,,,0.24,Wunderground v.1.15,2013-06-03 18:35:00,
2013-06-03 14:40:00,76.5,67.2,29.78,South,179,4.0,4.0,73,0.00,,,0.24,Wunderground v.1.15,2013-06-03 18:40:00,
2013-06-03 14:45:00,76.4,67.1,29.78,SW,215,4.0,5.0,73,0.00,,,0.24,Wunderground v.1.15,2013-06-03 18:45:00,
2013-06-03 14:50:00,76.3,67.4,29.78,SSE,163,0.0,5.0,74,0.00,,,0.24,Wunderground v.1.15,2013-06-03 18:50:00,
2013-06-03 14:56:00,76.5,67.6,29.78,South,179,3.0,5.0,74,0.00,,,0.24,Wunderground v.1.15,2013-06-03 18:56:00,
2013-06-03 15:01:00,76.5,67.6,29.78,South,189,7.0,7.0,74,0.00,,,0.24,Wunderground v.1.15,2013-06-03 19:01:00,
2013-06-03 15:06:00,76.6,66.9,29.77,SW,233,0.0,11.0,72,0.00,,,0.24,Wunderground v.1.15,2013-06-03 19:06:00,
2013-06-03 15:11:00,76.6,66.5,29.77,SSW,202,3.0,5.0,71,0.00,,,0.24,Wunderground v.1.15,2013-06-03 19:11:00,
2013-06-03 15:16:00,76.4,66.3,29.78,SSW,200,9.0,9.0,71,0.00,,,0.24,Wunderground v.1.15,2013-06-03 19:16:00,
2013-06-03 15:21:00,76.2,66.5,29.77,South,186,5.0,9.0,72,0.00,,,0.24,Wunderground v.1.15,2013-06-03 19:21:00,
2013-06-03 15:26:00,76.5,66.8,29.78,WSW,238,0.0,9.0,72,0.00,,,0.24,Wunderground v.1.15,2013-06-03 19:26:00,
2013-06-03 15:31:00,76.7,65.8,29.77,SSW,199,5.0,7.0,69,0.00,,,0.24,Wunderground v.1.15,2013-06-03 19:31:00,
2013-06-03 15:35:00,77.5,66.1,29.77,South,190,7.0,12.0,68,0.00,,,0.24,Wunderground v.1.15,2013-06-03 19:35:00,
2013-06-03 15:40:00,77.5,65.2,29.77,SW,218,1.0,5.0,66,0.00,,,0.24,Wunderground v.1.15,2013-06-03 19:40:00,
2013-06-03 15:45:00,77.4,65.1,29.77,SW,235,1.0,6.0,66,0.00,,,0.24,Wunderground v.1.15,2013-06-03 19:45:00,
2013-06-03 15:50:00,78.2,65.9,29.77,SW,215,0.0,5.0,66,0.00,,,0.24,Wunderground v.1.15,2013-06-03 19:50:00,
2013-06-03 15:55:00,78.7,65.0,29.77,South,184,5.0,13.0,63,0.00,,,0.24,Wunderground v.1.15,2013-06-03 19:55:00,
2013-06-03 16:00:00,78.9,64.8,29.77,West,263,5.0,7.0,62,0.00,,,0.24,Wunderground v.1.15,2013-06-03 20:00:00,
2013-06-03 16:05:00,79.3,65.6,29.77,SW,219,0.0,7.0,63,0.00,,,0.24,Wunderground v.1.15,2013-06-03 20:05:00,
2013-06-03 16:10:00,79.5,61.4,29.77,NW,313,5.0,7.0,54,0.00,,,0.24,Wunderground v.1.15,2013-06-03 20:10:00,
2013-06-03 16:15:00,79.9,62.3,29.77,SW,218,9.0,11.0,55,0.00,,,0.24,Wunderground v.1.15,2013-06-03 20:15:00,
2013-06-03 16:20:00,80.0,60.2,29.77,WNW,303,11.0,12.0,51,0.00,,,0.24,Wunderground v.1.15,2013-06-03 20:20:00,
2013-06-03 16:25:00,80.4,61.7,29.76,WNW,289,5.0,12.0,53,0.00,,,0.24,Wunderground v.1.15,2013-06-03 20:25:00,
2013-06-03 16:30:00,80.4,60.1,29.76,NW,307,5.0,7.0,50,0.00,,,0.24,Wunderground v.1.15,2013-06-03 20:30:00,
2013-06-03 16:35:00,80.2,61.0,29.76,WSW,254,6.0,11.0,52,0.00,,,0.24,Wunderground v.1.15,2013-06-03 20:35:00,
2013-06-03 16:40:00,80.4,61.2,29.76,WNW,294,3.0,10.0,52,0.00,,,0.24,Wunderground v.1.15,2013-06-03 20:40:00,
2013-06-03 16:45:00,80.4,60.1,29.76,SW,233,9.0,13.0,50,0.00,,,0.24,Wunderground v.1.15,2013-06-03 20:45:00,
2013-06-03 16:50:00,80.3,60.0,29.76,SW,231,12.0,12.0,50,0.00,,,0.24,Wunderground v.1.15,2013-06-03 20:50:00,
2013-06-03 16:55:00,80.0,59.7,29.76,NW,322,3.0,14.0,50,0.00,,,0.24,Wunderground v.1.15,2013-06-03 20:55:00,
2013-06-03 17:00:00,80.2,61.5,29.77,WSW,257,6.0,10.0,53,0.00,,,0.24,Wunderground v.1.15,2013-06-03 21:00:00,
2013-06-03 17:05:00,79.5,62.4,29.77,West,264,4.0,11.0,56,0.00,,,0.24,Wunderground v.1.15,2013-06-03 21:05:00,
2013-06-03 17:10:00,79.1,62.6,29.76,SW,234,0.0,7.0,57,0.00,,,0.24,Wunderground v.1.15,2013-06-03 21:10:00,
2013-06-03 17:15:00,78.7,63.2,29.77,SW,234,3.0,14.0,59,0.00,,,0.24,Wunderground v.1.15,2013-06-03 21:15:00,
2013-06-03 17:20:00,78.5,62.0,29.76,West,259,2.0,7.0,57,0.00,,,0.24,Wunderground v.1.15,2013-06-03 21:20:00,
2013-06-03 17:26:00,78.7,62.7,29.77,SSW,206,7.0,11.0,58,0.00,,,0.24,Wunderground v.1.15,2013-06-03 21:26:00,
2013-06-03 17:31:00,78.7,63.2,29.76,SSE,161,0.0,9.0,59,0.00,,,0.24,Wunderground v.1.15,2013-06-03 21:31:00,
2013-06-03 17:36:00,78.7,63.2,29.76,WSW,249,3.0,9.0,59,0.00,,,0.24,Wunderground v.1.15,2013-06-03 21:36:00,
2013-06-03 17:41:00,78.4,62.9,29.76,West,271,2.0,12.0,59,0.00,,,0.24,Wunderground v.1.15,2013-06-03 21:41:00,
2013-06-03 17:46:00,78.2,62.7,29.76,WNW,284,0.0,12.0,59,0.00,,,0.24,Wunderground v.1.15,2013-06-03 21:46:00,
2013-06-03 17:51:00,78.2,63.2,29.76,WNW,288,0.0,4.0,60,0.00,,,0.24,Wunderground v.1.15,2013-06-03 21:51:00,
2013-06-03 17:56:00,78.2,61.2,29.76,WNW,301,5.0,9.0,56,0.00,,,0.24,Wunderground v.1.15,2013-06-03 21:56:00,
2013-06-03 18:01:00,78.2,60.2,29.76,WNW,291,0.0,6.0,54,0.00,,,0.24,Wunderground v.1.15,2013-06-03 22:01:00,
2013-06-03 18:06:00,78.0,61.0,29.76,WSW,238,5.0,11.0,56,0.00,,,0.24,Wunderground v.1.15,2013-06-03 22:06:00,
2013-06-03 18:11:00,77.8,60.3,29.76,West,276,0.0,5.0,55,0.00,,,0.24,Wunderground v.1.15,2013-06-03 22:11:00,
2013-06-03 18:16:00,77.8,61.8,29.76,West,280,11.0,11.0,58,0.00,,,0.24,Wunderground v.1.15,2013-06-03 22:16:00,
2013-06-03 18:21:00,77.4,61.5,29.76,West,263,1.0,6.0,58,0.00,,,0.24,Wunderground v.1.15,2013-06-03 22:21:00,
2013-06-03 18:26:00,77.2,60.8,29.76,WNW,282,7.0,9.0,57,0.00,,,0.24,Wunderground v.1.15,2013-06-03 22:26:00,
2013-06-03 18:31:00,76.9,59.5,29.77,WNW,293,2.0,7.0,55,0.00,,,0.24,Wunderground v.1.15,2013-06-03 22:31:00,
2013-06-03 18:36:00,76.7,59.3,29.76,WNW,302,0.0,12.0,55,0.00,,,0.24,Wunderground v.1.15,2013-06-03 22:36:00,
2013-06-03 18:41:00,76.5,59.6,29.77,SW,225,10.0,11.0,56,0.00,,,0.24,Wunderground v.1.15,2013-06-03 22:41:00,
2013-06-03 18:46:00,76.1,59.3,29.77,NW,304,4.0,11.0,56,0.00,,,0.24,Wunderground v.1.15,2013-06-03 22:46:00,
2013-06-03 18:51:00,75.8,59.5,29.77,NW,309,4.0,6.0,57,0.00,,,0.24,Wunderground v.1.15,2013-06-03 22:51:00,
2013-06-03 18:56:00,75.6,58.3,29.78,NNW,338,0.0,11.0,55,0.00,,,0.24,Wunderground v.1.15,2013-06-03 22:56:00,
2013-06-03 19:01:00,75.2,57.4,29.77,WNW,301,4.0,13.0,54,0.00,,,0.24,Wunderground v.1.15,2013-06-03 23:01:00,
2013-06-03 19:06:00,74.9,57.1,29.78,NW,309,6.0,13.0,54,0.00,,,0.24,Wunderground v.1.15,2013-06-03 23:06:00,
2013-06-03 19:11:00,74.7,56.9,29.78,WSW,257,1.0,5.0,54,0.00,,,0.24,Wunderground v.1.15,2013-06-03 23:11:00,
2013-06-03 19:16:00,74.4,56.7,29.78,NW,316,0.0,12.0,54,0.00,,,0.24,Wunderground v.1.15,2013-06-03 23:16:00,
2013-06-03 19:21:00,74.1,56.4,29.79,WSW,253,3.0,7.0,54,0.00,,,0.24,Wunderground v.1.15,2013-06-03 23:21:00,
2013-06-03 19:26:00,73.7,56.0,29.79,NW,304,3.0,13.0,54,0.00,,,0.24,Wunderground v.1.15,2013-06-03 23:26:00,
2013-06-03 19:32:00,73.4,55.2,29.78,NW,317,0.0,9.0,53,0.00,,,0.24,Wunderground v.1.15,2013-06-03 23:32:00,
2013-06-03 19:37:00,73.1,54.4,29.79,WNW,302,5.0,11.0,52,0.00,,,0.24,Wunderground v.1.15,2013-06-03 23:37:00,
2013-06-03 19:42:00,72.8,53.6,29.79,WNW,284,6.0,10.0,51,0.00,,,0.24,Wunderground v.1.15,2013-06-03 23:42:00,
2013-06-03 19:47:00,72.5,53.3,29.79,WNW,302,6.0,12.0,51,0.00,,,0.24,Wunderground v.1.15,2013-06-03 23:47:00,
2013-06-03 19:52:00,72.2,53.1,29.79,West,261,4.0,9.0,51,0.00,,,0.24,Wunderground v.1.15,2013-06-03 23:52:00,
2013-06-03 19:57:00,71.8,52.7,29.79,West,275,0.0,13.0,51,0.00,,,0.24,Wunderground v.1.15,2013-06-03 23:57:00,
2013-06-03 20:02:00,71.3,51.1,29.80,WSW,254,0.0,7.0,49,0.00,,,0.24,Wunderground v.1.15,2013-06-04 00:02:00,
2013-06-03 20:07:00,71.0,50.9,29.80,NW,323,4.0,13.0,49,0.00,,,0.24,Wunderground v.1.15,2013-06-04 00:07:00,
2013-06-03 20:12:00,70.5,49.9,29.80,WNW,299,4.0,15.0,48,0.00,,,0.24,Wunderground v.1.15,2013-06-04 00:12:00,
2013-06-03 20:17:00,70.2,49.6,29.80,NE,37,2.0,19.0,48,0.00,,,0.24,Wunderground v.1.15,2013-06-04 00:17:00,
2013-06-03 20:22:00,69.9,49.3,29.80,WSW,248,2.0,11.0,48,0.00,,,0.24,Wunderground v.1.15,2013-06-04 00:22:00,
2013-06-03 20:27:00,69.6,49.0,29.81,NW,304,1.0,11.0,48,0.00,,,0.24,Wunderground v.1.15,2013-06-04 00:27:00,
2013-06-03 20:32:00,69.3,49.3,29.81,WNW,283,8.0,9.0,49,0.00,,,0.24,Wunderground v.1.15,2013-06-04 00:32:00,
2013-06-03 20:37:00,69.0,49.0,29.81,West,267,3.0,14.0,49,0.00,,,0.24,Wunderground v.1.15,2013-06-04 00:37:00,
2013-06-03 20:42:00,68.6,49.2,29.81,WNW,290,0.0,6.0,50,0.00,,,0.24,Wunderground v.1.15,2013-06-04 00:42:00,
2013-06-03 20:47:00,68.2,49.4,29.81,NW,304,2.0,9.0,51,0.00,,,0.24,Wunderground v.1.15,2013-06-04 00:47:00,
2013-06-03 20:52:00,67.7,48.9,29.81,WNW,302,4.0,14.0,51,0.00,,,0.24,Wunderground v.1.15,2013-06-04 00:52:00,
2013-06-03 20:57:00,67.4,48.1,29.82,NW,314,5.0,14.0,50,0.00,,,0.24,Wunderground v.1.15,2013-06-04 00:57:00,
2013-06-03 21:02:00,67.1,48.4,29.82,WNW,303,0.0,4.0,51,0.00,,,0.24,Wunderground v.1.15,2013-06-04 01:02:00,
2013-06-03 21:07:00,66.8,48.1,29.82,West,264,0.0,10.0,51,0.00,,,0.24,Wunderground v.1.15,2013-06-04 01:07:00,
2013-06-03 21:12:00,66.5,48.3,29.82,West,259,1.0,4.0,52,0.00,,,0.24,Wunderground v.1.15,2013-06-04 01:12:00,
2013-06-03 21:17:00,66.0,48.4,29.82,WNW,285,4.0,4.0,53,0.00,,,0.24,Wunderground v.1.15,2013-06-04 01:17:00,
2013-06-03 21:22:00,65.7,48.1,29.82,WNW,297,0.0,1.0,53,0.00,,,0.24,Wunderground v.1.15,2013-06-04 01:22:00,
2013-06-03 21:27:00,65.2,48.1,29.82,WNW,284,0.0,5.0,54,0.00,,,0.24,Wunderground v.1.15,2013-06-04 01:27:00,
2013-06-03 21:32:00,64.8,48.2,29.82,WNW,285,0.0,3.0,55,0.00,,,0.24,Wunderground v.1.15,2013-06-04 01:32:00,
2013-06-03 21:37:00,64.5,48.0,29.83,West,281,0.0,4.0,55,0.00,,,0.24,Wunderground v.1.15,2013-06-04 01:37:00,
2013-06-03 21:42:00,64.1,48.1,29.83,West,280,0.0,0.0,56,0.00,,,0.24,Wunderground v.1.15,2013-06-04 01:42:00,
2013-06-03 21:47:00,63.8,48.3,29.83,West,280,0.0,2.0,57,0.00,,,0.24,Wunderground v.1.15,2013-06-04 01:47:00,
2013-06-03 21:52:00,63.4,47.9,29.84,SW,229,4.0,4.0,57,0.00,,,0.24,Wunderground v.1.15,2013-06-04 01:52:00,
2013-06-03 21:57:00,63.3,46.9,29.84,WSW,258,2.0,10.0,55,0.00,,,0.24,Wunderground v.1.15,2013-06-04 01:57:00,
2013-06-03 22:02:00,63.4,46.9,29.84,WNW,299,0.0,3.0,55,0.00,,,0.24,Wunderground v.1.15,2013-06-04 02:02:00,
2013-06-03 22:07:00,63.3,46.9,29.83,WSW,240,0.0,4.0,55,0.00,,,0.24,Wunderground v.1.15,2013-06-04 02:07:00,
2013-06-03 22:12:00,63.1,46.7,29.84,West,265,1.0,3.0,55,0.00,,,0.24,Wunderground v.1.15,2013-06-04 02:12:00,
2013-06-03 22:17:00,62.8,46.9,29.83,WNW,291,5.0,5.0,56,0.00,,,0.24,Wunderground v.1.15,2013-06-04 02:17:00,
2013-06-03 22:22:00,62.5,46.6,29.84,WSW,248,0.0,4.0,56,0.00,,,0.24,Wunderground v.1.15,2013-06-04 02:22:00,
2013-06-03 22:28:00,62.2,46.8,29.84,West,266,0.0,5.0,57,0.00,,,0.24,Wunderground v.1.15,2013-06-04 02:28:00,
2013-06-03 22:33:00,62.0,46.6,29.84,WSW,244,0.0,4.0,57,0.00,,,0.24,Wunderground v.1.15,2013-06-04 02:33:00,
2013-06-03 22:38:00,61.8,46.4,29.84,WSW,250,5.0,6.0,57,0.00,,,0.24,Wunderground v.1.15,2013-06-04 02:38:00,
2013-06-03 22:43:00,61.6,46.2,29.84,West,275,2.0,10.0,57,0.00,,,0.24,Wunderground v.1.15,2013-06-04 02:43:00,
2013-06-03 22:48:00,61.3,46.4,29.84,WNW,284,4.0,10.0,58,0.00,,,0.24,Wunderground v.1.15,2013-06-04 02:48:00,
2013-06-03 22:53:00,61.2,45.8,29.84,WNW,287,0.0,7.0,57,0.00,,,0.24,Wunderground v.1.15,2013-06-04 02:53:00,
2013-06-03 22:58:00,61.0,45.7,29.84,West,270,0.0,7.0,57,0.00,,,0.24,Wunderground v.1.15,2013-06-04 02:58:00,
2013-06-03 23:03:00,61.0,45.7,29.84,NW,315,1.0,5.0,57,0.00,,,0.24,Wunderground v.1.15,2013-06-04 03:03:00,
2013-06-03 23:08:00,60.9,45.6,29.84,West,270,1.0,9.0,57,0.00,,,0.24,Wunderground v.1.15,2013-06-04 03:08:00,
2013-06-03 23:13:00,60.9,45.6,29.84,WNW,298,0.0,4.0,57,0.00,,,0.24,Wunderground v.1.15,2013-06-04 03:13:00,
2013-06-03 23:18:00,60.7,45.8,29.84,WNW,300,0.0,9.0,58,0.00,,,0.24,Wunderground v.1.15,2013-06-04 03:18:00,
2013-06-03 23:23:00,60.5,45.6,29.85,WNW,296,8.0,10.0,58,0.00,,,0.24,Wunderground v.1.15,2013-06-04 03:23:00,
2013-06-03 23:28:00,60.4,45.5,29.84,WSW,237,3.0,10.0,58,0.00,,,0.24,Wunderground v.1.15,2013-06-04 03:28:00,
2013-06-03 23:33:00,60.2,45.4,29.85,WNW,291,0.0,7.0,58,0.00,,,0.24,Wunderground v.1.15,2013-06-04 03:33:00,
2013-06-03 23:38:00,60.1,45.7,29.85,NW,304,1.0,8.0,59,0.00,,,0.24,Wunderground v.1.15,2013-06-04 03:38:00,
2013-06-03 23:43:00,60.0,46.1,29.85,West,267,5.0,9.0,60,0.00,,,0.24,Wunderground v.1.15,2013-06-04 03:43:00,
2013-06-03 23:48:00,59.8,45.4,29.85,NW,324,1.0,9.0,59,0.00,,,0.24,Wunderground v.1.15,2013-06-04 03:48:00,
2013-06-03 23:53:00,59.6,45.7,29.85,West,261,5.0,7.0,60,0.00,,,0.24,Wunderground v.1.15,2013-06-04 03:53:00,
2013-06-03 23:58:00,59.5,45.6,29.85,NW,304,1.0,7.0,60,0.00,,,0.24,Wunderground v.1.15,2013-06-04 03:58:00,